Home > Weather > Luton > Past weeks

Flag for United Kingdom Past Weather in Luton, England, United Kingdom — Yesterday and Last 2 Weeks

Now
68 °F

Partly sunny.


Feels Like: 68 °F
Forecast: 55 / 70 °F
Wind: 9 mph from West

Location: Luton Airport

Current Time: Jul 24, 2016 at 9:53:45 AM

Latest Report: Jul 24, 2016 at 9:20 AM


Visibility: N/A

Pressure: 30.09 "Hg

Humidity: 73%

Dew Point: 59 °F

Location of LutonLocation

Past Weather in Luton — Graph

°F

Luton Temperature Yesterday

Maximum temperature yesterday: 82 °F (at 2:50 PM)
Minimum temperature yesterday: 55 °F (at 4:50 AM)
Average temperature yesterday: 70 °F

High & Low Weather Summary for the Past Weeks

 TemperatureHumidityPressure
High88 °F (Jul 19, 1:50 PM)100% (Jul 10, 7:20 AM)30.30 "Hg (Jul 10, 7:20 AM)
Low48 °F (Jul 15, 4:50 AM)25% (Jul 18, 3:50 PM)29.65 "Hg (Jul 11, 3:20 AM)
Average65 °F77%30.04 "Hg
* Reported Jul 9 8:20 AM — Jul 24 8:20 AM, Luton, Weather by CustomWeather, © 2016

Note: Actual official high and low records may vary slightly from our data, if they occured in-between our weather recording intervals... More about our weather records

Advertising

Luton Weather History for the Previous 24 Hours

Scroll right to see more
 ConditionsComfort  
Time TempWeatherWind HumidityBarometerVisibility
8:20 AM
Sun, Jul 24
64 °FMild.6 mph83%30.09 "HgN/A
7:50 AM63 °FMild.5 mph88%30.09 "HgN/A
7:20 AM61 °FCool.5 mph88%30.09 "HgN/A
6:50 AM61 °FCool.5 mph88%30.09 "HgN/A
6:20 AM59 °FCool.5 mph88%30.09 "HgN/A
5:50 AM57 °FCool.5 mph94%30.09 "HgN/A
5:20 AM55 °FCool.5 mph94%30.09 "HgN/A
4:50 AM55 °FCool.6 mph94%30.09 "HgN/A
4:20 AM57 °FPassing clouds.3 mph88%30.09 "HgN/A
3:50 AM57 °FCool.2 mph88%30.09 "HgN/A
3:20 AM57 °FCool.3 mph88%30.09 "HgN/A
2:50 AM59 °FCool.8 mph82%30.09 "HgN/A
2:20 AM61 °FCool.9 mph77%30.09 "HgN/A
1:50 AM63 °FMild.9 mph77%30.12 "HgN/A
1:20 AM63 °FMild.10 mph73%30.12 "HgN/A
12:50 AM63 °FMild.9 mph77%30.12 "HgN/A
12:20 AM63 °FMild.8 mph83%30.12 "HgN/A
11:50 PM
Sat, Jul 23
63 °FMild.7 mph83%30.12 "HgN/A
11:20 PM64 °FMild.9 mph73%30.12 "HgN/A
10:50 PM66 °FMild.9 mph73%30.12 "HgN/A
10:20 PM68 °FPassing clouds.10 mph73%30.12 "HgN/A
9:50 PM68 °FPartly sunny.8 mph73%30.12 "HgN/A
9:20 PM70 °FMild.6 mph69%30.12 "HgN/A
8:50 PM72 °FScattered clouds.6 mph65%30.09 "HgN/A
8:20 PM72 °FMild.9 mph65%30.09 "HgN/A
7:50 PM75 °FMild.10 mph54%30.09 "HgN/A
7:20 PM77 °FWarm.8 mph51%30.09 "HgN/A
6:50 PM77 °FWarm.7 mph51%30.09 "HgN/A
6:20 PM79 °FWarm.10 mph48%30.09 "HgN/A
5:50 PM81 °FScattered clouds.10 mph45%30.09 "HgN/A
5:20 PM79 °FWarm.9 mph51%30.09 "HgN/A
4:50 PM81 °FWarm.10 mph45%30.09 "HgN/A
4:20 PM81 °FWarm.8 mph45%30.09 "HgN/A
3:50 PM82 °FWarm.8 mph42%30.09 "HgN/A
3:20 PM82 °FPleasantly warm.8 mph40%30.09 "HgN/A
2:50 PM82 °FPleasantly warm.5 mph40%30.09 "HgN/A
2:20 PM79 °FScattered clouds.2 mph51%30.12 "HgN/A
1:50 PM79 °FPartly sunny.5 mph48%30.12 "HgN/A
1:20 PM77 °FPassing clouds.2 mph54%30.12 "HgN/A
12:50 PM77 °FPassing clouds.2 mph54%30.12 "HgN/A
12:20 PM79 °FPassing clouds.6 mph51%30.12 "HgN/A
11:50 AM77 °FScattered clouds.3 mph54%30.12 "HgN/A
11:20 AM75 °FPassing clouds.5 mph57%30.12 "HgN/A
10:50 AM75 °FMild.5 mph61%30.12 "HgN/A
10:20 AM75 °FMild.2 mph65%30.12 "HgN/A
9:50 AM72 °FMild.5 mph73%30.12 "HgN/A
9:20 AM72 °FMild.5 mph73%30.12 "HgN/A
Weather by CustomWeather, © 2016

See weather overviewHow to use our weather pages